09:37
Airports
History
Links
Donate
Help keep this website running!
PayPal
Bitcoin
This page is community maintained. The information is intended for PC simulator navigation or reference.
Always use approved charts for navigation.
EDXB
Heide Buesum
Heide Buesum (EDXB)
Oesterdeichstrich, Schleswig-Holstein, Germany (25761)
(C)
Lat/Lng:54° 9' 11.72" N / 8° 54' 5.85" E
54.153256 / 8.901624
Elevation:7'ft / 2mMSL
ID / ICAO:EDXB
Runways:1
Longest:11-29
Asphalt 724m / 2,376ft
Controlled:Yes
Nearby Weather09:20 GMT 2018-02-24
Nearby weather at ETNH, HOHN located 28.0 nautical miles from EDXB
Altimeter: 30.50
Visibility: 6.2 statute miles
Wind: 16 knots (from 090°)
Temp: 1°c / 34°f
Humidity: 59.4%

METAR: ETNH 240920Z 09016KT 9999 SCT020 BKN120 01/M06 Q1033 BLU

(Powered by phpweather)
Airport Radio Frequencies
Tower: 122.6
Nearby VORs <50NM
Nearby NDBs
Runway 11 / 29
Dimensions:724.2 x 22.9m 2376' x 75'ft
Surface:Asphalt
Runway 11 [A]Runway 29 [B]
Heading:109°TH 289°TH
Lat:
Lng:
54° 9' 15.59"N
8° 53' 47.06"E
54° 9' 7.86"N
8° 54' 24.64"E
User Notes and Comments
54° 9' 11.72" N / 8° 54' 5.85" E
Distance To
Airport ID:
Nearby Airports
(C) Sankt Peter Ording 13.8 NM
EDXO NW 321°
(C) Sankt Michaelisdonn 15.6 NM
EDXM SE 140°
(C) HUSUM SCHWESING 26.4 NM
EDXJ NNE 21°
(C) Pellworm 27.9 NM
EDHP NNW 341°
(C) HOHN 28.0 NM
ETNH ( WX ) ENE 66°
(C) Nordholz 28.4 NM
ETMN ( WX ) SSW 200°
(C) Nordholz-Spieka 28.6 NM
EDXN SSW 201°
VFR Chart
Flight Planning at SkyVector.com